"Time","401549","401549"
"and",100.00,400.00
"Date","Water Level (m)","Discharge (ML/Day)"
"","Mean","Mean"
09:00:00 01/10/1983,,
09:00:00 02/10/1983,2.004,7310.661
09:00:00 03/10/1983,1.928,6716.87
09:00:00 04/10/1983,2.314,10011.405
09:00:00 05/10/1983,2.231,9209.836
09:00:00 06/10/1983,2.035,7560.38
09:00:00 07/10/1983,1.877,6339.087
09:00:00 08/10/1983,1.701,5098.408
09:00:00 09/10/1983,1.642,4676.196
09:00:00 10/10/1983,1.615,4491.223
09:00:00 11/10/1983,1.592,4326.383
09:00:00 12/10/1983,1.512,3805.08
09:00:00 13/10/1983,1.488,3645.203
09:00:00 14/10/1983,1.528,3908.618
09:00:00 15/10/1983,1.733,5320.169
09:00:00 16/10/1983,2.154,8647.772
09:00:00 17/10/1983,2.502,11762.693
09:00:00 18/10/1983,2.341,10213.155
09:00:00 19/10/1983,2.129,8312.786
09:00:00 20/10/1983,2.049,7658.587
09:00:00 21/10/1983,2.013,7368.208
09:00:00 22/10/1983,1.945,6842.873
09:00:00 23/10/1983,1.881,6373.021
09:00:00 24/10/1983,1.782,5668.12
09:00:00 25/10/1983,1.758,5496.97
09:00:00 26/10/1983,1.699,5089.194
09:00:00 27/10/1983,1.659,4800.596
09:00:00 28/10/1983,1.637,4640.065
09:00:00 29/10/1983,1.617,4501.092
09:00:00 30/10/1983,1.597,4361.98
09:00:00 31/10/1983,1.585,4281.904
09:00:00 01/11/1983,1.556,4092.345
09:00:00 02/11/1983,1.431,3258.114
09:00:00 03/11/1983,1.416,3160.401
09:00:00 04/11/1983,1.449,3378.915
09:00:00 05/11/1983,1.448,3374.128
09:00:00 06/11/1983,1.437,3298.748
09:00:00 07/11/1983,1.428,3242.264
09:00:00 08/11/1983,1.416,3160.256
09:00:00 09/11/1983,1.524,3877.531
09:00:00 10/11/1983,1.775,5614.787
09:00:00 11/11/1983,1.752,5458.074
09:00:00 12/11/1983,1.66,4808.794
09:00:00 13/11/1983,1.59,4318.562
09:00:00 14/11/1983,1.58,4245.329
09:00:00 15/11/1983,1.745,5434.512
09:00:00 16/11/1983,2.354,10334.136
09:00:00 17/11/1983,2.273,9572.715
09:00:00 18/11/1983,2.361,10392.128
09:00:00 19/11/1983,2.207,8980.015
09:00:00 20/11/1983,2.019,7426.106
09:00:00 21/11/1983,1.972,7052.868
09:00:00 22/11/1983,1.808,5861.81
09:00:00 23/11/1983,1.66,4806.723
09:00:00 24/11/1983,1.794,5749.549
09:00:00 25/11/1983,1.84,6077.108
09:00:00 26/11/1983,1.824,5959.122
09:00:00 27/11/1983,1.772,5595.64
09:00:00 28/11/1983,1.805,5830.707
09:00:00 29/11/1983,1.664,4834.41
09:00:00 30/11/1983,1.642,4675.527
09:00:00 01/12/1983,1.758,5504.604
09:00:00 02/12/1983,1.94,6818.288
09:00:00 03/12/1983,1.781,5661.884
09:00:00 04/12/1983,1.678,4938.854
09:00:00 05/12/1983,1.664,4836.639
09:00:00 06/12/1983,1.666,4846.401
09:00:00 07/12/1983,1.914,6626.93
09:00:00 08/12/1983,2.358,10432.849
09:00:00 09/12/1983,2.294,9801.696
09:00:00 10/12/1983,1.968,7020.091
09:00:00 11/12/1983,1.771,5589.876
09:00:00 12/12/1983,1.593,4337.61
09:00:00 13/12/1983,1.548,4036.978
09:00:00 14/12/1983,1.445,3360.307
09:00:00 15/12/1983,1.342,2709.472
09:00:00 16/12/1983,1.331,2638.115
09:00:00 17/12/1983,1.48,3593.383
09:00:00 18/12/1983,1.38,2953.841
09:00:00 19/12/1983,1.284,2366.651
09:00:00 20/12/1983,1.454,3428.985
09:00:00 21/12/1983,1.511,3791.646
09:00:00 22/12/1983,1.44,3337.658
09:00:00 23/12/1983,1.312,2526.123
09:00:00 24/12/1983,1.195,1892.153
09:00:00 25/12/1983,1.131,1553.329
09:00:00 26/12/1983,1.155,1683.883
09:00:00 27/12/1983,1.183,1822.574
09:00:00 28/12/1983,1.191,1864.066
09:00:00 29/12/1983,1.195,1886.172
09:00:00 30/12/1983,1.187,1846.061
09:00:00 31/12/1983,1.189,1852.767
09:00:00 01/01/1984,1.188,1848.388
09:00:00 02/01/1984,1.233,2089.934
09:00:00 03/01/1984,1.268,2277.691
09:00:00 04/01/1984,1.272,2303.992
09:00:00 05/01/1984,1.259,2228.033
09:00:00 06/01/1984,1.242,2135.991
09:00:00 07/01/1984,1.181,1811.904
09:00:00 08/01/1984,1.204,1932.446
09:00:00 09/01/1984,1.202,1926.724
09:00:00 10/01/1984,1.19,1863.111
09:00:00 11/01/1984,1.193,1872.925
09:00:00 12/01/1984,1.374,2915.763
09:00:00 13/01/1984,1.425,3222.682
09:00:00 14/01/1984,1.426,3226.327
09:00:00 15/01/1984,1.356,2797.319
09:00:00 16/01/1984,1.312,2532.384
09:00:00 17/01/1984,1.749,5446.606
09:00:00 18/01/1984,1.747,5425.458
09:00:00 19/01/1984,1.685,4989.208
09:00:00 20/01/1984,1.524,3882.028
09:00:00 21/01/1984,1.41,3129.78
09:00:00 22/01/1984,1.378,2919.771
09:00:00 23/01/1984,1.38,2934.616
09:00:00 24/01/1984,1.38,2931.704
09:00:00 25/01/1984,1.369,2864.786
09:00:00 26/01/1984,1.41,3133.26
09:00:00 27/01/1984,2.055,7783.841
09:00:00 28/01/1984,1.947,6881.221
09:00:00 29/01/1984,1.659,4802.682
09:00:00 30/01/1984,1.446,3360.4
09:00:00 31/01/1984,1.417,3167.252
09:00:00 01/02/1984,1.598,4385.192
09:00:00 02/02/1984,1.647,4715.613
09:00:00 03/02/1984,1.627,4568.463
09:00:00 04/02/1984,1.5,3720.329
09:00:00 05/02/1984,1.453,3404.047
09:00:00 06/02/1984,1.364,2850.404
09:00:00 07/02/1984,1.389,2998.044
09:00:00 08/02/1984,1.45,3387.682
09:00:00 09/02/1984,1.458,3437.083
09:00:00 10/02/1984,1.444,3342.129
09:00:00 11/02/1984,1.428,3242.599
09:00:00 12/02/1984,1.421,3193.57
09:00:00 13/02/1984,1.436,3293.335
09:00:00 14/02/1984,1.608,4445.869
09:00:00 15/02/1984,1.735,5336.847
09:00:00 16/02/1984,2.147,8522.842
09:00:00 17/02/1984,2.277,9623.399
09:00:00 18/02/1984,1.99,7202.539
09:00:00 19/02/1984,1.722,5246.569
09:00:00 20/02/1984,1.572,4206.497
09:00:00 21/02/1984,1.584,4279.326
09:00:00 22/02/1984,1.615,4484.407
09:00:00 23/02/1984,1.633,4614.501
09:00:00 24/02/1984,1.778,5638.004
09:00:00 25/02/1984,1.748,5430.246
09:00:00 26/02/1984,1.606,4427.158
09:00:00 27/02/1984,1.644,4694.504
09:00:00 28/02/1984,1.906,6568.826
09:00:00 29/02/1984,2.142,8430.177
09:00:00 01/03/1984,2.093,8021.206
09:00:00 02/03/1984,2.034,7538.425
09:00:00 03/03/1984,1.962,6984.004
09:00:00 04/03/1984,1.788,5711.236
09:00:00 05/03/1984,1.512,3801.056
09:00:00 06/03/1984,1.482,3600.123
09:00:00 07/03/1984,1.473,3543.235
09:00:00 08/03/1984,1.467,3498.385
09:00:00 09/03/1984,1.462,3468.822
09:00:00 10/03/1984,1.454,3414.798
09:00:00 11/03/1984,1.381,2950.99
09:00:00 12/03/1984,1.325,2600.931
09:00:00 13/03/1984,1.342,2704.335
09:00:00 14/03/1984,1.475,3562.05
09:00:00 15/03/1984,1.494,3687.145
09:00:00 16/03/1984,1.501,3734.335
09:00:00 17/03/1984,1.496,3698.979
09:00:00 18/03/1984,1.338,2680.227
09:00:00 19/03/1984,1.336,2669.213
09:00:00 20/03/1984,1.342,2703.735
09:00:00 21/03/1984,1.338,2679.732
09:00:00 22/03/1984,1.34,2689.031
09:00:00 23/03/1984,1.446,3367.599
09:00:00 24/03/1984,1.475,3557.759
09:00:00 25/03/1984,1.478,3575.487
09:00:00 26/03/1984,1.478,3575.487
09:00:00 27/03/1984,1.497,3706.373
09:00:00 28/03/1984,1.573,4218.313
09:00:00 29/03/1984,1.663,4829.27
09:00:00 30/03/1984,1.649,4728.4
09:00:00 31/03/1984,1.53,3920.586
09:00:00 01/04/1984,1.448,3372.839
09:00:00 02/04/1984,1.442,3330.29
09:00:00 03/04/1984,1.436,3292.521
09:00:00 04/04/1984,1.436,3293.333
09:00:00 05/04/1984,1.457,3431.671
09:00:00 06/04/1984,1.447,3366.119
09:00:00 07/04/1984,1.344,2716.074
09:00:00 08/04/1984,1.34,2689.153
09:00:00 09/04/1984,1.337,2675.499
09:00:00 10/04/1984,1.323,2589.757
09:00:00 11/04/1984,1.334,2653.525
09:00:00 12/04/1984,1.359,2806.123
09:00:00 13/04/1984,1.527,3904.431
09:00:00 14/04/1984,1.703,5117.463
09:00:00 15/04/1984,1.699,5090.757
09:00:00 16/04/1984,1.664,4837.352
09:00:00 17/04/1984,1.659,4799.969
09:00:00 18/04/1984,1.674,4910.417
09:00:00 19/04/1984,1.486,3629.396
09:00:00 20/04/1984,1.397,3040.94
09:00:00 21/04/1984,1.522,3876.436
09:00:00 22/04/1984,1.74,5374.461
09:00:00 23/04/1984,1.655,4774.497
09:00:00 24/04/1984,1.583,4268.191
09:00:00 25/04/1984,1.493,3668.828
09:00:00 26/04/1984,1.434,3281.444
09:00:00 27/04/1984,1.436,3294.997
09:00:00 28/04/1984,1.421,3192.407
09:00:00 29/04/1984,1.418,3173.761
09:00:00 30/04/1984,1.412,3136.756
09:00:00 01/05/1984,1.402,3076.074
09:00:00 02/05/1984,1.413,3143.622
09:00:00 03/05/1984,1.423,3204.53
09:00:00 04/05/1984,1.473,3536.735
09:00:00 05/05/1984,1.544,4010.064
09:00:00 06/05/1984,1.526,3896.98
09:00:00 07/05/1984,1.531,3925.514
09:00:00 08/05/1984,1.754,5476.855
09:00:00 09/05/1984,1.93,6730.955
09:00:00 10/05/1984,1.93,6731.999
09:00:00 11/05/1984,1.868,6283.395
09:00:00 12/05/1984,1.665,4844.296
09:00:00 13/05/1984,1.541,3995.725
09:00:00 14/05/1984,1.488,3648.582
09:00:00 15/05/1984,1.489,3650.196
09:00:00 16/05/1984,1.489,3649.098
09:00:00 17/05/1984,1.484,3616.885
09:00:00 18/05/1984,1.475,3557.306
09:00:00 19/05/1984,1.566,4164.729
09:00:00 20/05/1984,1.644,4688.821
09:00:00 21/05/1984,1.648,4723.823
09:00:00 22/05/1984,1.647,4716.706
09:00:00 23/05/1984,1.643,4686.827
09:00:00 24/05/1984,1.662,4821.171
09:00:00 25/05/1984,1.67,4879.176
09:00:00 26/05/1984,1.661,4810.784
09:00:00 27/05/1984,1.652,4745.933
09:00:00 28/05/1984,1.509,3785.763
09:00:00 29/05/1984,1.442,3338.808
09:00:00 30/05/1984,1.343,2705.737
09:00:00 31/05/1984,1.338,2679.038
09:00:00 01/06/1984,1.336,2664.575
09:00:00 02/06/1984,1.335,2660.346
09:00:00 03/06/1984,1.357,2795.773
09:00:00 04/06/1984,1.469,3514.247
09:00:00 05/06/1984,1.522,3868.729
09:00:00 06/06/1984,1.523,3874.291
09:00:00 07/06/1984,1.53,3920.237
09:00:00 08/06/1984,1.525,3887.829
09:00:00 09/06/1984,1.382,2959.57
09:00:00 10/06/1984,1.34,2689.8
09:00:00 11/06/1984,1.332,2640.923
09:00:00 12/06/1984,1.319,2568.548
09:00:00 13/06/1984,1.315,2543.953
09:00:00 14/06/1984,1.338,2687.276
09:00:00 15/06/1984,1.521,3862.634
09:00:00 16/06/1984,1.517,3837.783
09:00:00 17/06/1984,1.522,3866.739
09:00:00 18/06/1984,1.592,4334.982
09:00:00 19/06/1984,1.626,4567.662
09:00:00 20/06/1984,1.697,5066.195
09:00:00 21/06/1984,1.786,5691.267
09:00:00 22/06/1984,1.638,4653.344
09:00:00 23/06/1984,1.603,4404.566
09:00:00 24/06/1984,1.587,4297.399
09:00:00 25/06/1984,1.662,4831.207
09:00:00 26/06/1984,1.554,4078.291
09:00:00 27/06/1984,1.43,3253.721
09:00:00 28/06/1984,1.414,3152.437
09:00:00 29/06/1984,1.286,2382.045
09:00:00 30/06/1984,1.276,2323.308
09:00:00 01/07/1984,1.262,2241.592
09:00:00 02/07/1984,1.272,2298.56
09:00:00 03/07/1984,1.287,2384.582
09:00:00 04/07/1984,1.44,3337.767
09:00:00 05/07/1984,1.649,4736.247
09:00:00 06/07/1984,1.693,5038.077
09:00:00 07/07/1984,1.648,4720.796
09:00:00 08/07/1984,1.546,4020.774
09:00:00 09/07/1984,1.551,4058.641
09:00:00 10/07/1984,1.504,3752.09
09:00:00 11/07/1984,1.382,2950.669
09:00:00 12/07/1984,1.362,2823.028
09:00:00 13/07/1984,1.339,2685.643
09:00:00 14/07/1984,1.342,2702.88
09:00:00 15/07/1984,1.334,2657.03
09:00:00 16/07/1984,1.352,2768.92
09:00:00 17/07/1984,1.495,3686.656
09:00:00 18/07/1984,1.593,4338.632
09:00:00 19/07/1984,1.719,5226.269
09:00:00 20/07/1984,1.862,6230.488
09:00:00 21/07/1984,1.854,6177.62
09:00:00 22/07/1984,1.838,6062.376
09:00:00 23/07/1984,1.829,5994.36
09:00:00 24/07/1984,1.755,5478.213
09:00:00 25/07/1984,1.636,4647.536
09:00:00 26/07/1984,1.559,4107.725
09:00:00 27/07/1984,1.559,4110.002
09:00:00 28/07/1984,1.551,4053.15
09:00:00 29/07/1984,1.642,4687.137
09:00:00 30/07/1984,1.838,6057.057
09:00:00 31/07/1984,1.92,6660.288
09:00:00 01/08/1984,1.89,6439.489
09:00:00 02/08/1984,1.944,6837.175
09:00:00 03/08/1984,1.903,6532.52
09:00:00 04/08/1984,1.798,5784.503
09:00:00 05/08/1984,1.736,5347.098
09:00:00 06/08/1984,1.747,5423.086
09:00:00 07/08/1984,1.955,6919.471
09:00:00 08/08/1984,1.74,5373.625
09:00:00 09/08/1984,1.701,5104.765
09:00:00 10/08/1984,1.734,5333.182
09:00:00 11/08/1984,2.066,7798.122
09:00:00 12/08/1984,2.02,7424.379
09:00:00 13/08/1984,2.084,7945.008
09:00:00 14/08/1984,2.257,9439.693
09:00:00 15/08/1984,2.211,9034.951
09:00:00 16/08/1984,2.066,7796.567
09:00:00 17/08/1984,2.003,7289.179
09:00:00 18/08/1984,1.944,6844.827
09:00:00 19/08/1984,2.14,8420.12
09:00:00 20/08/1984,2.261,9460.832
09:00:00 21/08/1984,2.448,11320.774
09:00:00 22/08/1984,2.935,16483.815
09:00:00 23/08/1984,2.783,14705.387
09:00:00 24/08/1984,2.892,15953.908
09:00:00 25/08/1984,2.756,14425.746
09:00:00 26/08/1984,2.984,17152.141
09:00:00 27/08/1984,2.855,15543.201
09:00:00 28/08/1984,2.702,13852.12
09:00:00 29/08/1984,2.625,13027.219
09:00:00 30/08/1984,2.576,12516.966
09:00:00 31/08/1984,2.39,10674.711
09:00:00 01/09/1984,2.208,8998.674
09:00:00 02/09/1984,2.048,7654.199
09:00:00 03/09/1984,1.975,7075.574
09:00:00 04/09/1984,2.007,7320.897
09:00:00 05/09/1984,1.985,7150.344
09:00:00 06/09/1984,2.193,8894.912
09:00:00 07/09/1984,2.233,9225.624
09:00:00 08/09/1984,2.115,8202.947
09:00:00 09/09/1984,2.044,7617.941
09:00:00 10/09/1984,2.025,7468.039
09:00:00 11/09/1984,2.007,7324.366
09:00:00 12/09/1984,2.932,17144.59
09:00:00 13/09/1984,3.127,19301.896
09:00:00 14/09/1984,2.875,15756.981
09:00:00 15/09/1984,2.587,12641.208
09:00:00 16/09/1984,2.466,11409.31
09:00:00 17/09/1984,2.305,9863.075
09:00:00 18/09/1984,2.331,10105.986
09:00:00 19/09/1984,2.501,11756.543
09:00:00 20/09/1984,2.553,12293.861
09:00:00 21/09/1984,2.613,12910.16
09:00:00 22/09/1984,2.948,16734.039
09:00:00 23/09/1984,2.945,16619.13
09:00:00 24/09/1984,2.712,13948.776
09:00:00 25/09/1984,2.518,11934.055
09:00:00 26/09/1984,2.341,10206.85
09:00:00 27/09/1984,2.226,9154.123
09:00:00 28/09/1984,2.252,9385.008
09:00:00 29/09/1984,2.084,7944.366
09:00:00 30/09/1984,2.044,7612.943
09:00:00 01/10/1984,1.927,6714.986
09:00:00 02/10/1984,1.893,6454.075
09:00:00 03/10/1984,1.865,6251.315
09:00:00 04/10/1984,2.589,14701.357
09:00:00 05/10/1984,3.397,28633.794
09:00:00 06/10/1984,3.039,18001.689
09:00:00 07/10/1984,2.862,15589.017
09:00:00 08/10/1984,2.721,14047.051
09:00:00 09/10/1984,2.596,12732.401
09:00:00 10/10/1984,2.763,14500.625
09:00:00 11/10/1984,2.923,16376.408
09:00:00 12/10/1984,2.818,15089.076
09:00:00 13/10/1984,2.601,12786.941
09:00:00 14/10/1984,2.432,11069.51
09:00:00 15/10/1984,2.574,12503.499
09:00:00 16/10/1984,2.676,13561.654
09:00:00 17/10/1984,2.545,12201.736
09:00:00 18/10/1984,2.372,10488.313
09:00:00 19/10/1984,2.278,9626.529
09:00:00 20/10/1984,1.988,7188.908
09:00:00 21/10/1984,1.788,5713.646
09:00:00 22/10/1984,1.679,4945.429
09:00:00 23/10/1984,1.651,4745.267
09:00:00 24/10/1984,1.716,5199.267
09:00:00 25/10/1984,1.805,5824.682
09:00:00 26/10/1984,1.938,6792.948
09:00:00 27/10/1984,1.958,6946.431
09:00:00 28/10/1984,1.968,7021.986
09:00:00 29/10/1984,2.036,7553.311
09:00:00 30/10/1984,2.024,7459.729
09:00:00 31/10/1984,1.991,7201.243
09:00:00 01/11/1984,1.882,6380.572
09:00:00 02/11/1984,1.71,5166.527
09:00:00 03/11/1984,1.68,4950.8
09:00:00 04/11/1984,1.717,5208.452
09:00:00 05/11/1984,1.782,5666.075
09:00:00 06/11/1984,1.639,4662.423
09:00:00 07/11/1984,1.663,4825.888
09:00:00 08/11/1984,1.745,5408.853
09:00:00 09/11/1984,1.741,5378.969
09:00:00 10/11/1984,1.745,5408.957
09:00:00 11/11/1984,1.727,5284.589
09:00:00 12/11/1984,1.725,5272.007
09:00:00 13/11/1984,1.723,5253.718
09:00:00 14/11/1984,1.73,5307.248
09:00:00 15/11/1984,1.728,5288.084
09:00:00 16/11/1984,1.703,5113.682
09:00:00 17/11/1984,1.616,4495.589
09:00:00 18/11/1984,1.583,4276.776
09:00:00 19/11/1984,1.496,3703.683
09:00:00 20/11/1984,1.495,3694.995
09:00:00 21/11/1984,1.491,3666.581
09:00:00 22/11/1984,1.483,3613.142
09:00:00 23/11/1984,1.49,3661.844
09:00:00 24/11/1984,1.483,3610.168
09:00:00 25/11/1984,1.592,4337.167
09:00:00 26/11/1984,1.623,4542.385
09:00:00 27/11/1984,1.661,4815.187
09:00:00 28/11/1984,1.79,5722.994
09:00:00 29/11/1984,1.73,5304.276
09:00:00 30/11/1984,1.577,4243.665
09:00:00 01/12/1984,1.503,3746.066
09:00:00 02/12/1984,1.586,4293.016
09:00:00 03/12/1984,1.607,4431.702
09:00:00 04/12/1984,1.624,4549.889
09:00:00 05/12/1984,1.614,4477.777
09:00:00 06/12/1984,1.61,4453.639
09:00:00 07/12/1984,1.557,4100.496
09:00:00 08/12/1984,1.488,3646.652
09:00:00 09/12/1984,1.483,3607.284
09:00:00 10/12/1984,1.479,3580.012
09:00:00 11/12/1984,1.472,3536.178
09:00:00 12/12/1984,1.608,4443.132
09:00:00 13/12/1984,1.497,3707.991
09:00:00 14/12/1984,1.632,4613.805
09:00:00 15/12/1984,1.65,4737.417
09:00:00 16/12/1984,1.648,4723.717
09:00:00 17/12/1984,1.633,4613.076
09:00:00 18/12/1984,1.53,3921.795
09:00:00 19/12/1984,1.559,4117.295
09:00:00 20/12/1984,1.658,4796.478
09:00:00 21/12/1984,1.52,3852.329
09:00:00 22/12/1984,1.425,3231.114
09:00:00 23/12/1984,1.279,2339.572
09:00:00 24/12/1984,1.268,2278.264
09:00:00 25/12/1984,1.286,2380.778
09:00:00 26/12/1984,1.271,2294.825
09:00:00 27/12/1984,1.294,2426.379
09:00:00 28/12/1984,1.336,2664.825
09:00:00 29/12/1984,1.382,2946.369
09:00:00 30/12/1984,1.398,3046.804
09:00:00 31/12/1984,1.393,3014.876
09:00:00 01/01/1985,1.388,2984.216
09:00:00 02/01/1985,1.39,2994.604
09:00:00 03/01/1985,1.394,3023.717
09:00:00 04/01/1985,1.408,3112.086
09:00:00 05/01/1985,1.374,2899.514
09:00:00 06/01/1985,1.335,2661.107
09:00:00 07/01/1985,1.302,2470.214
09:00:00 08/01/1985,1.181,1818.024
09:00:00 09/01/1985,1.07,1292.74
09:00:00 10/01/1985,1.013,1080.903
09:00:00 11/01/1985,0.994,1016.435
09:00:00 12/01/1985,0.983,980.544
09:00:00 13/01/1985,1.004,1064.821
09:00:00 14/01/1985,1.251,2209.723
09:00:00 15/01/1985,1.638,4666.718
09:00:00 16/01/1985,1.462,3476.51
09:00:00 17/01/1985,1.553,4095.971
09:00:00 18/01/1985,1.571,4202.049
09:00:00 19/01/1985,1.475,3553.79
09:00:00 20/01/1985,1.48,3591.793
09:00:00 21/01/1985,1.555,4085.124
09:00:00 22/01/1985,1.592,4339.08
09:00:00 23/01/1985,1.493,3676.181
09:00:00 24/01/1985,1.459,3445.051
09:00:00 25/01/1985,1.304,2495.832
09:00:00 26/01/1985,1.116,1495.424
09:00:00 27/01/1985,1.262,2258.225
09:00:00 28/01/1985,1.347,2732.699
09:00:00 29/01/1985,1.545,4027.052
09:00:00 30/01/1985,1.663,4834.055
09:00:00 31/01/1985,1.693,5045.709
09:00:00 01/02/1985,1.497,3702.391
09:00:00 02/02/1985,1.389,2991.343
09:00:00 03/02/1985,1.38,2934.217
09:00:00 04/02/1985,1.366,2844.356
09:00:00 05/02/1985,1.414,3163.111
09:00:00 06/02/1985,1.579,4241.195
09:00:00 07/02/1985,1.649,4736.142
09:00:00 08/02/1985,1.701,5105.425
09:00:00 09/02/1985,1.692,5040.728
09:00:00 10/02/1985,1.55,4048.99
09:00:00 11/02/1985,1.529,3913.896
09:00:00 12/02/1985,1.528,3908.959
09:00:00 13/02/1985,1.525,3886.056
09:00:00 14/02/1985,1.608,4444.815
09:00:00 15/02/1985,1.633,4615.914
09:00:00 16/02/1985,1.518,3840.36
09:00:00 17/02/1985,1.473,3542.811
09:00:00 18/02/1985,1.573,4211.619
09:00:00 19/02/1985,1.53,3921.585
09:00:00 20/02/1985,1.357,2807.099
09:00:00 21/02/1985,1.286,2380.505
09:00:00 22/02/1985,1.325,2610.815
09:00:00 23/02/1985,1.412,3138.641
09:00:00 24/02/1985,1.328,2627.561
09:00:00 25/02/1985,1.292,2416.169
09:00:00 26/02/1985,1.342,2713.414
09:00:00 27/02/1985,1.407,3102.094
09:00:00 28/02/1985,1.451,3395.07
09:00:00 01/03/1985,1.466,3491.49
09:00:00 02/03/1985,1.377,2916.657
09:00:00 03/03/1985,1.36,2809.707
09:00:00 04/03/1985,1.347,2733.44
09:00:00 05/03/1985,1.343,2708.79
09:00:00 06/03/1985,1.471,3536.501
09:00:00 07/03/1985,1.508,3782.212
09:00:00 08/03/1985,1.609,4448.949
09:00:00 09/03/1985,1.704,5121.136
09:00:00 10/03/1985,1.591,4328.025
09:00:00 11/03/1985,1.43,3253.724
09:00:00 12/03/1985,1.408,3108.837
09:00:00 13/03/1985,1.41,3121.737
09:00:00 14/03/1985,1.403,3079.476
09:00:00 15/03/1985,1.461,3462.706
09:00:00 16/03/1985,1.6,4386.22
09:00:00 17/03/1985,1.585,4282.668
09:00:00 18/03/1985,1.583,4266.901
09:00:00 19/03/1985,1.689,5016.448
09:00:00 20/03/1985,1.713,5188.1
09:00:00 21/03/1985,1.719,5229.433
09:00:00 22/03/1985,1.718,5225.975
09:00:00 23/03/1985,1.915,6655.783
09:00:00 24/03/1985,1.877,6342.385
09:00:00 25/03/1985,1.726,5274.328
09:00:00 26/03/1985,1.691,5035.095
09:00:00 27/03/1985,1.715,5203.176
09:00:00 28/03/1985,1.721,5242.866
09:00:00 29/03/1985,1.716,5207.175
09:00:00 30/03/1985,1.561,4135.692
09:00:00 31/03/1985,1.427,3239.072
09:00:00 01/04/1985,1.411,3132.151
09:00:00 02/04/1985,1.409,3115.379
09:00:00 03/04/1985,1.399,3052.39
09:00:00 04/04/1985,1.372,2892.91
09:00:00 05/04/1985,1.231,2084.498
09:00:00 06/04/1985,1.119,1515.464
09:00:00 07/04/1985,1.064,1267.09
09:00:00 08/04/1985,1.061,1254.026
09:00:00 09/04/1985,1.066,1272.91
09:00:00 10/04/1985,1.066,1273.553
09:00:00 11/04/1985,1.066,1273.205
09:00:00 12/04/1985,1.064,1266.155
09:00:00 13/04/1985,1.066,1274.4
09:00:00 14/04/1985,1.068,1279.916
09:00:00 15/04/1985,1.205,1971.294
09:00:00 16/04/1985,1.298,2450.216
09:00:00 17/04/1985,1.468,3519.423
09:00:00 18/04/1985,1.499,3723.293
09:00:00 19/04/1985,1.525,3885.706
09:00:00 20/04/1985,1.66,4812.372
09:00:00 21/04/1985,1.75,5441.219
09:00:00 22/04/1985,1.793,5745.226
09:00:00 23/04/1985,1.787,5704.749
09:00:00 24/04/1985,1.728,5289.869
09:00:00 25/04/1985,1.534,3946.224
09:00:00 26/04/1985,1.379,2939.359
09:00:00 27/04/1985,1.317,2555.235
09:00:00 28/04/1985,1.319,2566.047
09:00:00 29/04/1985,1.304,2483.723
09:00:00 30/04/1985,1.291,2406.964
09:00:00 01/05/1985,1.301,2464.167
09:00:00 02/05/1985,1.313,2535.437
09:00:00 03/05/1985,1.311,2521.378
09:00:00 04/05/1985,1.301,2466.81
09:00:00 05/05/1985,1.379,2952.953
09:00:00 06/05/1985,1.458,3437.354
09:00:00 07/05/1985,1.472,3534.216
09:00:00 08/05/1985,1.505,3758.153
09:00:00 09/05/1985,1.501,3734.011
09:00:00 10/05/1985,1.515,3821.779
09:00:00 11/05/1985,1.529,3912.159
09:00:00 12/05/1985,1.509,3787.143
09:00:00 13/05/1985,1.468,3504.012
09:00:00 14/05/1985,1.446,3358.163
09:00:00 15/05/1985,1.465,3489.195
09:00:00 16/05/1985,1.479,3581.1
09:00:00 17/05/1985,1.547,4030.515
09:00:00 18/05/1985,1.67,4880.376
09:00:00 19/05/1985,1.534,3944.725
09:00:00 20/05/1985,1.612,4487.019
09:00:00 21/05/1985,1.714,5198.362
09:00:00 22/05/1985,1.689,5015.311
09:00:00 23/05/1985,1.486,3625.291
09:00:00 24/05/1985,1.316,2567.043
09:00:00 25/05/1985,1.13,1560.258
09:00:00 26/05/1985,1.088,1363.203
09:00:00 27/05/1985,1.087,1358.814
09:00:00 28/05/1985,1.089,1364.439
09:00:00 29/05/1985,1.076,1313.111
09:00:00 30/05/1985,1.153,1701.302
09:00:00 31/05/1985,1.48,3593.841
09:00:00 01/06/1985,1.637,4648.841
09:00:00 02/06/1985,1.522,3870.807
09:00:00 03/06/1985,1.484,3616.267
09:00:00 04/06/1985,1.644,4702.429
09:00:00 05/06/1985,1.858,6207.147
09:00:00 06/06/1985,2.051,7677.681
09:00:00 07/06/1985,2.114,8185.978
09:00:00 08/06/1985,1.969,7034.932
09:00:00 09/06/1985,1.701,5098.194
09:00:00 10/06/1985,1.468,3506.338
09:00:00 11/06/1985,1.409,3117.602
09:00:00 12/06/1985,1.413,3144.965
09:00:00 13/06/1985,1.521,3859.655
09:00:00 14/06/1985,1.586,4291.752
09:00:00 15/06/1985,1.5,3723.094
09:00:00 16/06/1985,1.404,3086.786
09:00:00 17/06/1985,1.399,3055.841
09:00:00 18/06/1985,1.4,3057.551
09:00:00 19/06/1985,1.408,3107.833
09:00:00 20/06/1985,1.471,3528.067
09:00:00 21/06/1985,1.581,4255.352
09:00:00 22/06/1985,1.457,3432.517
09:00:00 23/06/1985,1.482,3600.142
09:00:00 24/06/1985,1.801,5807.045
09:00:00 25/06/1985,1.809,5856.605
09:00:00 26/06/1985,1.719,5229.495
09:00:00 27/06/1985,1.57,4189.067
09:00:00 28/06/1985,1.392,3011.811
09:00:00 29/06/1985,1.235,2095.741
09:00:00 30/06/1985,1.225,2042.68
09:00:00 01/07/1985,1.233,2087.728
09:00:00 02/07/1985,1.227,2054.711
09:00:00 03/07/1985,1.234,2091.738
09:00:00 04/07/1985,1.151,1660.661
09:00:00 05/07/1985,1.111,1459.55
09:00:00 06/07/1985,1.106,1439.289
09:00:00 07/07/1985,1.258,2225.148
09:00:00 08/07/1985,1.283,2362.051
09:00:00 09/07/1985,1.501,3732.767
09:00:00 10/07/1985,1.541,3988.614
09:00:00 11/07/1985,1.64,4672.068
09:00:00 12/07/1985,1.63,4598.992
09:00:00 13/07/1985,1.509,3783.211
09:00:00 14/07/1985,1.6,4384.156
09:00:00 15/07/1985,1.605,4419.932
09:00:00 16/07/1985,1.642,4679.854
09:00:00 17/07/1985,1.795,5759.416
09:00:00 18/07/1985,1.786,5696.194
09:00:00 19/07/1985,1.642,4678.862
09:00:00 20/07/1985,1.51,3787.139
09:00:00 21/07/1985,1.352,2778.342
09:00:00 22/07/1985,1.287,2386.315
09:00:00 23/07/1985,1.29,2402.805
09:00:00 24/07/1985,1.518,3853.493
09:00:00 25/07/1985,1.756,5485.948
09:00:00 26/07/1985,1.789,5718.218
09:00:00 27/07/1985,1.676,4922.323